When you browse on this site, cookies collect data to enhance your experience and personalize the content and advertising you see.
Visit our Privacy Policy to learn more. By continuing to use the site, you agree to this use of cookies and data.
  • în România
  • Lista ţărilor
  • Pe 7 zile
  • Temperatura apei
  • Hartă satelitară
  • Meteo pe hartă
  • Widget-uri
  • user-avatar
    Intrare

    Meteo pe oră la Vatican

    Astăzi, 27 Iunie, Joi

    Timp Temperatura Precipitaţii Vânt Presiune Umiditate
    00:00 +29°C° 0 mm 1 m/s 763 mmHg 60%
    01:00 +28°C° 0 mm 1 m/s 763 mmHg 60%
    02:00 +28°C° 0 mm 1 m/s 763 mmHg 60%
    03:00 +28°C° 0 mm 2 m/s 762 mmHg 60%
    04:00 +28°C° 0 mm 3 m/s 762 mmHg 60%
    05:00 +28°C° 0 mm 3 m/s 762 mmHg 57%
    06:00 +29°C° 0 mm 2 m/s 763 mmHg 53%
    07:00 +29°C° 0 mm 2 m/s 763 mmHg 50%
    08:00 +31°C° 0 mm 2 m/s 763 mmHg 47%
    09:00 +34°C° 0 mm 2 m/s 762 mmHg 44%
    10:00 +34°C° 0 mm 1 m/s 762 mmHg 41%
    11:00 +35°C° 0 mm 3 m/s 762 mmHg 41%
    12:00 +35°C° 0 mm 4 m/s 762 mmHg 40%
    13:00 +36°C° 0 mm 5 m/s 762 mmHg 40%
    14:00 +35°C° 0 mm 6 m/s 761 mmHg 43%
    15:00 +34°C° 0 mm 6 m/s 761 mmHg 46%
    16:00 +33°C° 0 mm 7 m/s 760 mmHg 49%
    17:00 +33°C° 0 mm 6 m/s 760 mmHg 51%
    18:00 +32°C° 0 mm 6 m/s 760 mmHg 52%
    19:00 +32°C° 0 mm 5 m/s 760 mmHg 54%
    20:00 +30°C° 0 mm 5 m/s 760 mmHg 55%
    21:00 +29°C° 0 mm 4 m/s 760 mmHg 57%
    22:00 +29°C° 0 mm 4 m/s 760 mmHg 58%
    23:00 +28°C° 0 mm 4 m/s 760 mmHg 59%

    Mâine, 28 Iunie, Vineri

    Timp Temperatura Precipitaţii Vânt Presiune Umiditate
    00:00 +28°C° 0 mm 3 m/s 760 mmHg 59%
    01:00 +28°C° 0 mm 3 m/s 760 mmHg 59%
    02:00 +28°C° 0 mm 3 m/s 759 mmHg 58%
    03:00 +27°C° 0 mm 3 m/s 759 mmHg 57%
    04:00 +27°C° 0 mm 2 m/s 759 mmHg 55%
    05:00 +28°C° 0 mm 2 m/s 759 mmHg 53%
    06:00 +29°C° 0 mm 2 m/s 759 mmHg 50%
    07:00 +30°C° 0 mm 2 m/s 759 mmHg 47%
    08:00 +31°C° 0 mm 2 m/s 759 mmHg 45%
    09:00 +33°C° 0 mm 3 m/s 759 mmHg 44%
    10:00 +34°C° 0 mm 3 m/s 759 mmHg 42%
    11:00 +34°C° 0 mm 2 m/s 758 mmHg 44%
    12:00 +34°C° 0 mm 2 m/s 758 mmHg 45%
    13:00 +34°C° 0 mm 2 m/s 758 mmHg 46%
    14:00 +34°C° 0 mm 2 m/s 758 mmHg 46%
    15:00 +34°C° 0 mm 2 m/s 758 mmHg 46%
    16:00 +34°C° 0 mm 2 m/s 758 mmHg 46%
    17:00 +34°C° 0 mm 2 m/s 758 mmHg 48%
    18:00 +32°C° 0 mm 2 m/s 758 mmHg 50%
    19:00 +31°C° 0 mm 1 m/s 758 mmHg 52%
    20:00 +31°C° 0 mm 1 m/s 758 mmHg 53%
    21:00 +30°C° 0 mm 1 m/s 759 mmHg 55%
    22:00 +29°C° 0 mm 1 m/s 759 mmHg 56%
    23:00 +29°C° 0 mm 1 m/s 759 mmHg 58%

    Poimâine, 29 Iunie, Sâmbătă

    Timp Temperatura Precipitaţii Vânt Presiune Umiditate
    00:00 +29°C° 0 mm 1 m/s 759 mmHg 60%
    01:00 +28°C° 0 mm 1 m/s 759 mmHg 61%
    02:00 +28°C° 0 mm 2 m/s 759 mmHg 59%
    03:00 +28°C° 0 mm 2 m/s 759 mmHg 57%
    04:00 +28°C° 0 mm 2 m/s 758 mmHg 55%
    05:00 +29°C° 0 mm 2 m/s 758 mmHg 53%
    06:00 +29°C° 0 mm 2 m/s 759 mmHg 50%
    07:00 +30°C° 0 mm 2 m/s 759 mmHg 48%
    08:00 +31°C° 0 mm 2 m/s 759 mmHg 45%
    09:00 +32°C° 0 mm 2 m/s 759 mmHg 43%
    10:00 +35°C° 0 mm 2 m/s 759 mmHg 40%
    11:00 +34°C° 0 mm 3 m/s 759 mmHg 42%
    12:00 +34°C° 0 mm 3 m/s 759 mmHg 44%
    13:00 +34°C° 0 mm 4 m/s 759 mmHg 45%
    14:00 +33°C° 0 mm 4 m/s 759 mmHg 46%
    15:00 +33°C° 0 mm 4 m/s 759 mmHg 47%
    16:00 +33°C° 0 mm 3 m/s 759 mmHg 47%
    17:00 +31°C° 0 mm 3 m/s 759 mmHg 50%
    18:00 +31°C° 0 mm 2 m/s 759 mmHg 52%
    19:00 +30°C° 0 mm 1 m/s 759 mmHg 55%
    20:00 +29°C° 0 mm 1 m/s 760 mmHg 57%
    21:00 +27°C° 0 mm 0 m/s 760 mmHg 59%
    22:00 +26°C° 0 mm 0 m/s 760 mmHg 60%
    23:00 +26°C° 0 mm 0 m/s 760 mmHg 62%

    30 Iunie, Duminică

    Timp Temperatura Precipitaţii Vânt Presiune Umiditate
    00:00 +26°C° 0 mm 0 m/s 760 mmHg 63%
    01:00 +25°C° 0 mm 0 m/s 760 mmHg 64%
    02:00 +27°C° 0 mm 1 m/s 760 mmHg 62%
    03:00 +27°C° 0 mm 2 m/s 760 mmHg 61%
    04:00 +27°C° 0 mm 3 m/s 760 mmHg 59%
    05:00 +27°C° 0 mm 3 m/s 760 mmHg 57%
    06:00 +28°C° 0 mm 3 m/s 760 mmHg 55%
    07:00 +28°C° 0 mm 3 m/s 760 mmHg 53%
    08:00 +29°C° 0 mm 3 m/s 761 mmHg 52%
    09:00 +30°C° 0 mm 4 m/s 761 mmHg 52%
    10:00 +30°C° 0 mm 4 m/s 761 mmHg 51%
    11:00 +32°C° 0 mm 4 m/s 761 mmHg 48%
    12:00 +32°C° 0 mm 4 m/s 761 mmHg 45%
    13:00 +32°C° 0 mm 4 m/s 761 mmHg 41%
    14:00 +32°C° 0 mm 4 m/s 761 mmHg 44%
    15:00 +31°C° 0 mm 3 m/s 761 mmHg 47%
    16:00 +31°C° 0 mm 3 m/s 761 mmHg 50%
    17:00 +30°C° 0 mm 2 m/s 761 mmHg 53%
    18:00 +30°C° 0 mm 2 m/s 761 mmHg 56%
    19:00 +29°C° 0 mm 1 m/s 761 mmHg 59%
    20:00 +29°C° 0 mm 1 m/s 761 mmHg 60%
    21:00 +28°C° 0 mm 1 m/s 762 mmHg 61%
    22:00 +26°C° 0 mm 0 m/s 762 mmHg 62%
    23:00 +28°C° 0 mm 1 m/s 762 mmHg 62%

    1 Iulie, Luni

    Timp Temperatura Precipitaţii Vânt Presiune Umiditate
    00:00 +27°C° 0 mm 1 m/s 762 mmHg 61%
    01:00 +27°C° 0 mm 1 m/s 762 mmHg 61%
    02:00 +27°C° 0 mm 1 m/s 761 mmHg 60%
    03:00 +27°C° 0 mm 1 m/s 761 mmHg 58%
    04:00 +26°C° 0 mm 1 m/s 761 mmHg 57%
    05:00 +27°C° 0 mm 1 m/s 761 mmHg 55%
    06:00 +28°C° 0 mm 1 m/s 761 mmHg 54%
    07:00 +26°C° 0 mm 0 m/s 761 mmHg 52%
    08:00 +29°C° 0 mm 1 m/s 761 mmHg 50%
    09:00 +30°C° 0 mm 1 m/s 761 mmHg 47%
    10:00 +31°C° 0 mm 2 m/s 761 mmHg 45%
    11:00 +31°C° 0 mm 2 m/s 761 mmHg 47%
    12:00 +31°C° 0 mm 3 m/s 761 mmHg 49%
    13:00 +31°C° 0 mm 3 m/s 761 mmHg 50%
    14:00 +31°C° 0 mm 3 m/s 761 mmHg 52%
    15:00 +31°C° 0 mm 3 m/s 760 mmHg 53%
    16:00 +31°C° 0 mm 3 m/s 760 mmHg 55%
    17:00 +30°C° 0 mm 3 m/s 760 mmHg 57%
    18:00 +30°C° 0 mm 3 m/s 760 mmHg 59%
    19:00 +29°C° 0 mm 2 m/s 760 mmHg 61%
    20:00 +28°C° 0 mm 2 m/s 760 mmHg 62%
    21:00 +28°C° 0 mm 2 m/s 760 mmHg 63%
    22:00 +27°C° 0 mm 2 m/s 761 mmHg 64%
    23:00 +27°C° 0 mm 2 m/s 761 mmHg 65%

    2 Iulie, Marţi

    Timp Temperatura Precipitaţii Vânt Presiune Umiditate
    00:00 +27°C° 0 mm 2 m/s 761 mmHg 65%
    01:00 +26°C° 0 mm 3 m/s 760 mmHg 65%
    02:00 +26°C° 0 mm 3 m/s 760 mmHg 64%
    03:00 +26°C° 0 mm 3 m/s 760 mmHg 63%
    04:00 +26°C° 0 mm 2 m/s 760 mmHg 62%
    05:00 +26°C° 0 mm 2 m/s 760 mmHg 59%
    06:00 +27°C° 0 mm 2 m/s 760 mmHg 56%
    07:00 +28°C° 0 mm 2 m/s 760 mmHg 53%
    08:00 +29°C° 0 mm 3 m/s 759 mmHg 51%
    09:00 +30°C° 0 mm 3 m/s 759 mmHg 50%
    10:00 +32°C° 0 mm 4 m/s 759 mmHg 49%
    11:00 +32°C° 0 mm 4 m/s 759 mmHg 49%
    12:00 +32°C° 0 mm 5 m/s 759 mmHg 50%
    13:00 +32°C° 0 mm 5 m/s 759 mmHg 50%
    14:00 +32°C° 0 mm 5 m/s 759 mmHg 51%
    15:00 +32°C° 0 mm 5 m/s 759 mmHg 51%
    16:00 +32°C° 0 mm 5 m/s 758 mmHg 51%
    17:00 +30°C° 0 mm 4 m/s 758 mmHg 53%
    18:00 +29°C° 0 mm 3 m/s 758 mmHg 55%
    19:00 +29°C° 0 mm 2 m/s 758 mmHg 57%
    20:00 +28°C° 0 mm 2 m/s 758 mmHg 58%
    21:00 +28°C° 0 mm 3 m/s 759 mmHg 59%
    22:00 +27°C° 0 mm 3 m/s 759 mmHg 60%
    23:00 +27°C° 0 mm 3 m/s 759 mmHg 60%
    Arată mai mult